Location: Gros-Chastang
(45.2122°N, 1.9953°E)
Time: 14:42:37
(UTC+00:00)

Daily predictions for brighter satellites

Satellite Brightness Start Highest point End
(mag) Time Altitude Azimuth Time Altitude Azimuth Time Altitude Azimuth
STARLINK-1023 3.0 17:51:39 10° WSW 17:54:48 79° NNW 17:57:58 10° NE
STARLINK-1057 4.4 17:51:49 10° SSW 17:55:35 35° SE 17:59:22 10° ENE
STARLINK-58 3.8 17:52:48 10° WSW 17:56:17 53° NNW 17:59:47 10° NE
Envisat 3.7 17:52:47 10° S 17:57:48 60° W 18:02:51 10° NNW
STARLINK-62 3.9 17:54:30 10° WSW 17:57:58 51° NNW 18:01:27 10° NE
CZ-4 R/B 4.4 17:54:28 10° SSE 17:58:33 67° ENE 18:02:40 10° N
STARLINK-34 3.9 17:56:09 10° WSW 17:59:36 50° NNW 18:03:04 10° NE
STARLINK-81 3.8 17:55:39 10° WSW 17:59:40 69° NNW 18:03:41 10° NE
STARLINK-1034 4.3 17:56:41 10° SSW 18:00:32 38° SE 18:04:22 10° ENE
ADEOS Rocket 4.0 17:54:12 10° NNE 18:01:29 41° E 18:08:35 10° SSE
STARLINK-54 3.9 17:57:32 10° WSW 18:01:32 63° NNW 18:05:33 10° NE
Cosmos 1725 Rocket 4.0 17:56:06 10° S 18:02:14 74° E 18:08:26 10° NNE
STARLINK-77 3.8 17:59:00 10° WSW 18:03:00 66° NNW 18:07:01 10° NE
Cosmos 1777 Rocket 4.0 17:59:17 10° NNW 18:04:33 64° ENE 18:09:45 10° SSE
STARLINK-25 3.9 18:00:40 10° WSW 18:04:39 64° NNW 18:08:40 10° NE
Cosmos 1633 3.6 18:01:14 10° SSW 18:04:43 50° WNW 18:08:16 10° N
STARLINK-1068 4.2 18:01:34 10° SSW 18:05:29 41° SE 18:09:23 10° ENE
SJ 16-02 3.3 18:04:25 10° NNE 18:06:04 12° NE 18:07:43 10° ENE
STARLINK-71 4.0 18:02:34 10° WSW 18:06:32 59° NNW 18:10:32 10° NE
STARLINK-33 4.3 18:03:41 10° W 18:06:42 33° NNW 18:09:43 10° NE
STARLINK-79 3.9 18:03:58 10° WSW 18:07:57 61° NNW 18:11:57 10° NE
STARLINK-66 4.4 18:05:44 10° W 18:08:44 32° NNW 18:11:43 10° NE
STARLINK-55 4.4 18:05:58 10° W 18:08:57 31° NNW 18:11:56 10° NE
Cosmos 2061 Rocket 4.3 18:03:12 10° SSW 18:09:37 79° W 18:16:02 10° N
STARLINK-78 4.0 18:05:41 10° WSW 18:09:39 60° NNW 18:13:39 10° NE
Aureole 2 Rocket 1.9 18:07:09 10° S 18:09:41 48° ESE 18:12:17 10° NNE
STARLINK-1007 3.3 18:07:20 10° WSW 18:10:30 60° NNW 18:13:40 10° NE
STARLINK-28 4.5 18:07:41 10° W 18:10:37 30° NNW 18:13:34 10° NE
STARLINK-57 4.0 18:07:27 10° WSW 18:11:25 57° NNW 18:15:24 10° NE
STARLINK-49 4.0 18:08:58 10° WSW 18:12:56 57° NNW 18:16:55 10° NE
STARLINK-27 4.1 18:10:39 10° WSW 18:14:36 56° NNW 18:18:35 10° NE
NOSS 2-3 (E) 4.0 18:10:57 10° S 18:14:59 43° ESE 18:19:38 10° NE
STARLINK-1060 4.0 18:11:24 10° SW 18:15:23 49° SE 18:19:11 11° ENE
STARLINK-74 4.1 18:12:19 10° WSW 18:16:16 55° NNW 18:20:14 10° NE
Cosmos 1812 2.6 18:13:23 10° N 18:17:16 76° E 18:21:07 10° SSE
YAOGAN 1 2.5 18:13:29 10° SSE 18:17:47 74° ENE 18:22:07 10° N
STARLINK-39 4.1 18:13:58 10° WSW 18:17:55 54° NNW 18:21:53 10° NE
Cosmos 2369 Rocket 2.2 18:12:25 10° SSW 18:17:59 65° ESE 18:23:39 10° NNE
STARLINK-42 4.5 18:16:37 10° W 18:19:31 30° NNW 18:22:27 10° NE
STARLINK-31 4.2 18:15:40 10° WSW 18:19:37 52° NNW 18:23:34 10° NE
STARLINK-1030 3.8 18:16:21 10° SW 18:20:23 54° SE 18:24:00 13° ENE
STARLINK-69 4.3 18:17:31 10° W 18:21:26 49° NNW 18:25:22 10° NE
Cosmos 1633 Rocket 3.0 18:18:11 10° S 18:22:31 83° E 18:26:53 10° N
Cosmos 2285 Rocket 4.2 18:16:19 10° NNW 18:22:34 54° ENE 18:28:49 10° SE
STARLINK-21 4.2 18:19:00 10° WSW 18:22:55 50° NNW 18:26:47 10° NE
SL-27 R/B 2.5 18:20:13 10° NNW 18:23:33 74° WSW 18:26:50 10° SSE
STARLINK-1010 3.7 18:20:50 10° WSW 18:23:57 48° NNW 18:26:52 12° NE
CZ-2D R/B 3.2 18:20:12 10° SSE 18:24:04 69° ENE 18:27:57 10° N
STARLINK-45 4.3 18:20:56 10° W 18:24:49 46° NNW 18:28:36 11° NE
Tsikada Rocket 4.2 18:18:43 10° N 18:25:08 84° W 18:31:33 10° S
USA 234 4.4 18:19:41 10° ENE 18:25:16 32° N 18:30:52 10° WNW
STARLINK-1020 3.7 18:21:15 10° SW 18:25:18 59° SE 18:28:45 14° ENE
Cosmos 1862 4.1 18:21:51 10° SSW 18:25:45 55° WNW 18:29:40 10° N
STARLINK-1047 3.7 18:22:02 10° SW 18:26:08 61° SE 18:29:37 14° ENE
STARLINK-70 4.3 18:22:29 10° W 18:26:23 47° NNW 18:30:06 11° NE
SKYMED 2 4.2 18:22:38 10° N 18:26:56 60° WNW 18:31:11 10° SSW
STARLINK-76 4.3 18:24:01 10° W 18:27:55 47° NNW 18:31:34 12° NE
Cosmos 1833 4.5 18:23:13 10° NNW 18:28:49 49° ENE 18:34:20 10° SE
Cosmos 1666 Rocket 4.0 18:24:47 10° SSW 18:29:14 69° W 18:33:44 10° N
STARLINK-23 4.3 18:25:42 10° W 18:29:35 46° NNW 18:33:10 12° NE
NOSS 2-3 (D) 3.8 18:25:44 10° SSW 18:29:54 55° ESE 18:34:43 10° NE
Cosmos 1933 Rocket 4.0 18:25:48 10° SSE 18:29:54 39° E 18:34:00 10° NNE
STARLINK-1052 3.7 18:26:13 10° SW 18:30:19 64° SE 18:33:34 16° ENE
STARLINK-32 4.4 18:27:22 10° W 18:31:15 45° NNW 18:34:46 12° NE
STARLINK-29 3.2 18:28:10 10° NW 18:31:34 61° NNE 18:33:51 19° ESE
USA 229 DEB 3.9 18:25:19 10° SW 18:31:51 72° NW 18:38:45 10° NE
USA 229 3.9 18:25:25 10° SW 18:31:58 72° NW 18:38:52 10° NE
STARLINK-40 4.4 18:29:01 10° W 18:32:53 45° NNW 18:36:20 13° NE
STARLINK-44 4.4 18:30:42 10° W 18:34:34 44° NNW 18:37:56 13° NE
Cosmos 44 3.0 18:31:10 10° NNW 18:35:35 78° NE 18:40:08 10° SE
STARLINK-37 4.5 18:32:31 10° W 18:36:22 42° NNW 18:39:39 13° NE
STARLINK-1029 3.6 18:33:48 10° WSW 18:36:53 49° NNW 18:39:10 16° NE
STARLINK-36 4.5 18:34:03 10° W 18:37:53 42° NNW 18:41:07 14° NE
STARLINK-1016 4.0 18:34:57 10° W 18:38:03 40° NNW 18:40:24 15° NE
STARLINK-1008 4.0 18:34:55 10° W 18:38:03 40° NNW 18:40:28 15° NE
Cosmos 1346 Rocket 2.9 18:34:47 10° S 18:38:39 51° E 18:42:31 10° NNE
NOSS 3-1 (A) 3.3 18:33:28 10° SW 18:38:58 88° SE 18:45:23 10° NE
STARLINK-1033 3.6 18:36:07 10° SW 18:40:14 75° SE 18:43:07 19° ENE
STARLINK-1035 3.6 18:36:41 10° SW 18:40:57 83° SE 18:44:00 18° ENE
STARLINK-1025 4.1 18:38:02 10° W 18:41:07 38° NNW 18:43:22 16° NE
Ariane Rocket 3.2 18:36:28 10° SE 18:41:21 48° ENE 18:46:16 10° N
STARLINK-1017 4.1 18:39:35 10° W 18:42:39 38° NNW 18:44:50 17° NE
FALCON 9 DEB 3.0 18:39:29 10° WNW 18:42:56 86° NNE 18:45:00 22° ESE
Cosmos 2263 4.2 18:37:25 10° SSW 18:43:10 74° ESE 18:48:56 10° NNE
USA 116 4.1 18:39:45 10° N 18:43:44 73° WNW 18:48:14 10° SSW
STARLINK-52 3.0 18:40:22 10° NW 18:43:45 68° NNE 18:45:25 27° ESE
ARGOS 3.9 18:39:13 10° SE 18:43:54 32° ENE 18:48:41 10° N
CSL-04 Rocket 4.0 18:39:50 10° S 18:45:22 73° WSW 18:50:52 10° NNW
STARLINK-1048 4.2 18:44:16 10° W 18:47:20 36° NNW 18:49:20 18° NE
STARLINK 1040 4.3 18:44:57 10° W 18:47:24 26° NNW 18:48:51 17° NNE
STARLINK-1049 4.3 18:45:51 10° W 18:48:55 35° NNW 18:50:50 18° NE
CENTAUR R/B 4.5 18:43:38 10° NNW 18:49:09 21° NNE 18:54:06 13° ENE
STARLINK-60 4.0 18:46:20 10° WNW 18:49:29 43° SW 18:51:55 15° SSE
STARLINK-1024 3.5 18:46:02 10° SW 18:50:10 87° SSE 18:52:41 23° ENE
STARLINK-1028 4.3 18:47:27 10° W 18:50:31 34° NNW 18:52:24 19° NE
STARLINK-1051 4.3 18:47:29 10° W 18:50:32 34° NNW 18:52:24 19° NE
Cosmos 2233 Rocket 4.2 18:44:55 10° SSW 18:51:03 75° W 18:57:16 10° N
STARLINK-1027 3.7 18:47:19 10° WSW 18:51:35 81° NNW 18:54:17 22° NE
STARLINK-1021 4.3 18:49:07 10° W 18:52:10 34° NNW 18:53:58 19° NNE
STARLINK-1014 4.2 18:49:48 10° W 18:53:05 40° NNW 18:55:03 20° NE
STARLINK-1019 4.4 18:50:46 10° W 18:53:48 33° NNW 18:55:32 20° NNE
H-2A R/B 2.4 18:49:39 10° SE 18:54:43 45° ENE 18:59:54 10° N
STARLINK-1012 4.4 18:52:26 10° W 18:55:29 33° NNW 18:57:09 20° NNE
Cosmos 990 Rocket 4.5 18:51:26 10° N 18:56:13 37° ENE 18:58:20 26° ESE
STARLINK-1026 4.4 18:55:46 10° W 18:58:47 32° NNW 19:00:19 21° NNE
Lacrosse 5 3.3 18:55:36 10° SSE 18:58:29 19° SE 18:58:29 19° SE
STARLINK-1032 3.6 18:56:00 10° WSW 19:00:09 82° NNW 19:02:16 28° NE
Meteor 1-18 Rocket 4.5 18:54:38 10° N 19:00:24 50° ENE 19:06:03 10° SSE
MOS 1 4.4 18:54:55 10° SE 19:00:24 54° ENE 19:05:55 10° N
STARLINK-1013 4.5 18:57:29 10° W 19:00:29 31° NNW 19:01:57 21° NNE
Cosmos 2297 Rocket 3.9 18:58:39 10° N 19:01:47 15° NE 19:02:16 15° NE
Meteor 1-20 Rocket 4.1 18:56:41 10° S 19:02:03 63° E 19:07:32 10° NNE
STARLINK-1009 4.5 18:59:09 10° W 19:02:09 31° NNW 19:03:33 22° NNE
Cosmos 724 4.4 18:57:05 10° NW 19:02:53 75° WSW 19:08:42 10° SSE
Cosmos 1932 4.5 18:56:43 10° NW 19:03:19 81° NE 19:08:56 15° SE
NOSS 2-3 (C) 3.8 18:59:44 10° SW 19:04:03 75° NW 19:08:59 11° NE
STARLINK-43 4.4 19:00:47 10° NW 19:04:08 30° NNE 19:04:52 28° NE
Cosmos 1937 Rocket 4.2 18:59:27 10° N 19:04:12 33° ENE 19:05:16 30° E
STARLINK-1011 3.7 19:00:59 10° WSW 19:05:07 76° NNW 19:07:02 31° NE
STARLINK-1050 4.4 19:03:19 10° SSW 19:07:00 32° SE 19:07:01 32° SE
Lacrosse 4 Rocket 4.3 19:05:13 10° WNW 19:07:17 13° NW 19:09:21 10° N
Lacrosse 5 rocket 3.5 19:04:17 10° NW 19:07:32 19° N 19:09:19 15° NE
Okean 1 3.5 19:04:00 10° N 19:07:53 45° ENE 19:08:21 42° E
Cosmos 1470 Rocket 4.2 19:05:16 10° SSW 19:09:32 56° W 19:13:53 10° N
STARLINK-1036 3.7 19:05:59 10° WSW 19:10:06 71° NNW 19:11:49 34° NE
Cosmos 1072 Rocket 4.4 19:04:09 10° S 19:10:28 69° E 19:16:45 10° NNE
STARLINK-1055 4.3 19:08:11 10° SSW 19:11:47 34° SE 19:11:47 34° SE
Cosmos 2242 Rocket 3.8 19:07:40 10° NNW 19:12:13 74° W 19:16:45 10° S
Resurs 01 Rocket 3.6 19:15:30 15° NNE 19:15:30 15° NNE 19:16:44 10° NNE
SL-08 RB Rocket 4.2 19:14:23 38° ENE 19:14:23 38° ENE 19:18:26 10° N
Meteor 1-14 Rocket 4.2 19:09:07 10° S 19:14:26 52° E 19:19:49 10° NNE
STARLINK-1044 3.8 19:10:58 10° WSW 19:15:04 67° NNW 19:16:35 36° NE
Cosmos 1943 Rocket 3.6 19:10:49 10° WSW 19:15:59 38° NW 19:21:08 10° NNE
STARLINK-1022 4.3 19:13:05 10° SSW 19:16:35 37° SSE 19:16:35 37° SSE
Gbstr 26 Del rocket 3.2 19:13:47 10° SW 19:17:46 51° SE 19:18:23 47° ESE
CZ-4 R/B 4.4 19:16:40 10° SW 19:19:41 19° W 19:22:41 10° NW
Cosmos 2227 Rocket 3.8 19:16:44 10° N 19:20:07 17° NE 19:20:07 17° NE
STARLINK-1031 4.0 19:17:22 10° WSW 19:21:21 55° NNW 19:22:33 38° NNE
STARLINK-1042 4.2 19:17:58 10° SSW 19:21:21 39° SSE 19:21:21 39° SSE
Cosmos 1340 4.3 19:19:08 10° SW 19:22:36 35° WNW 19:26:07 10° N
Cosmos 1513 Rocket 4.3 19:16:45 10° S 19:22:48 77° E 19:28:57 10° N
OE (NEXTSAT) 4.3 19:19:51 10° W 19:23:19 80° N 19:23:19 80° N
CZ-2C R/B 3.2 19:19:00 14° SSE 19:24:06 68° ENE 19:29:47 10° N
STARLINK-1037 4.0 19:20:54 10° WSW 19:24:59 58° NNW 19:26:05 42° NNE
STARLINK-1056 4.2 19:22:51 10° SSW 19:26:08 40° SSE 19:26:08 40° SSE
Cosmos 405 3.0 19:26:07 10° NNW 19:29:30 79° NW 19:29:30 79° NW
STARLINK-1059 4.1 19:26:00 10° WSW 19:30:04 55° NNW 19:30:58 44° NNE
STARLINK-1054 4.3 19:27:45 10° SW 19:30:54 41° S 19:30:54 41° S
USA 267 4.1 19:33:08 28° SE 19:33:08 28° SE 19:37:42 10° S
Cosmos 1891 Rocket 4.4 19:27:04 10° S 19:33:15 88° W 19:39:36 10° N
Cosmos 1703 Rocket 3.8 19:29:00 10° NNW 19:33:26 70° W 19:37:46 11° S
Okean 1-7 3.0 19:29:51 10° N 19:34:10 80° W 19:36:19 29° S
STARLINK-1057 4.2 19:31:01 10° WSW 19:35:04 52° NNW 19:35:45 46° N
COSMOS 2487 2.8 19:31:56 10° NNW 19:35:18 60° W 19:35:18 60° W
STARLINK-1062 4.4 19:32:42 10° SW 19:35:42 41° S 19:35:42 41° S
SPOT 3 Rocket 3.5 19:36:24 55° ESE 19:37:15 64° ENE 19:42:25 10° N
Meteor 1-19 Rocket 4.1 19:31:54 10° N 19:37:45 79° E 19:40:38 30° SSE
Cosmos 468 Rocket 3.9 19:34:36 10° SSW 19:39:53 80° ESE 19:44:32 14° NNE
STARLINK-1034 4.2 19:36:01 10° W 19:40:03 49° NNW 19:40:31 46° N
Cosmos 44 Rocket 3.3 19:36:01 10° NNW 19:40:28 58° NE 19:40:28 58° NE
STARLINK-1053 4.5 19:37:37 10° SW 19:40:28 40° SSW 19:40:28 40° SSW
Meteor 2-4 Rocket 3.8 19:35:58 10° N 19:41:47 56° ENE 19:42:12 55° E
Cosmos 1869 Rocket 3.6 19:37:22 10° S 19:42:47 54° NNE 19:46:12 10° N
Cosmos 2219 4.2 19:38:18 10° N 19:42:42 32° NE 19:42:42 32° NE
STARLINK-1068 4.3 19:41:02 10° W 19:45:03 46° NNW 19:45:17 46° N
BREEZE-M DEB (TANK) 4.2 19:42:02 10° WNW 19:45:20 57° SSW 19:47:33 37° SSE
SJ 16-02 1.3 19:40:54 10° NNW 19:45:09 82° NNW 19:45:09 82° NNW
ADEOS Rocket 4.5 19:39:36 10° N 19:46:59 49° WNW 19:54:16 10° SW
Cosmos 1656 Rocket 4.3 19:43:19 10° SW 19:48:43 53° WNW 19:54:12 10° NNE
Cosmos 1898 Rocket 3.5 19:45:47 10° NNW 19:50:59 78° WSW 19:52:08 54° S
SJ-6B 3.7 19:52:31 44° NW 19:52:31 44° NW 19:55:17 10° NNW
Nadezhda 4 Rocket 4.0 19:53:51 10° N 20:00:09 81° W 20:03:48 27° S
Cosmos 2369 Rocket 4.3 19:57:59 10° WSW 20:02:31 24° NW 20:07:06 10° N
Cosmos 1763 Rocket 3.6 20:01:50 10° SSW 20:07:02 75° WNW 20:07:24 71° NNW
USA 234 3.8 20:06:31 41° NE 20:07:20 42° NNE 20:13:25 10° NW
MetOp-A 4.2 20:11:17 76° NW 20:11:17 76° NW 20:16:17 10° NNW
NOSS 3-2 (A) 4.2 20:10:22 10° NNW 20:17:32 51° NE 20:17:38 51° NE
Cosmos 2034 Rocket 4.5 20:12:33 10° SSW 20:18:36 57° WNW 20:24:40 10° N
Timation 2 Rocket 4.4 20:13:05 10° NNW 20:19:54 65° WSW 20:21:36 50° SSW
ARGOS 4.4 20:20:43 19° SSW 20:24:03 38° W 20:29:07 10° NNW
BREEZE-M DEB (TANK) 3.8 20:09:35 10° W 20:27:32 66° N 20:27:48 65° NNE
H-2A R/B 4.0 20:29:49 10° SSW 20:34:18 27° W 20:38:53 10° NW
Lacrosse 5 4.1 20:36:29 10° SW 20:37:46 18° SW 20:37:46 18° SW
CENTAUR R/B 3.7 20:34:31 10° NNW 20:41:17 44° NNE 20:41:17 44° NNE
Cosmos 1092 Rocket 4.4 20:37:28 10° NNW 20:43:32 60° W 20:43:32 60° W
Cosmos 2297 Rocket 3.7 20:41:16 10° NNW 20:44:05 30° NNW 20:44:05 30° NNW
Lacrosse 5 rocket 4.1 20:43:40 10° NW 20:44:58 17° NNW 20:44:58 17° NNW
Resurs 01 Rocket 4.3 20:53:04 16° NNW 20:53:04 16° NNW 20:53:59 10° NNW
ATLAS 3B R/B 4.0 20:46:41 10° NNW 20:50:49 28° N 20:50:49 28° N
Cosmos 2227 Rocket 4.0 20:59:40 10° NNW 21:01:58 25° NNW 21:01:58 25° NNW
